Regional Weather Roundup
Issued by NWS

Home | Current Version | Previous Version | Text Only | Print | Product List | Glossary Off
Versions: 1 2 3 4 5 6 7 8 9 10 11 12 13 14 15 16 17 18 19 20 21 22 23 24 25 26 27 28 29 30 31 32 33 34 35 36 37 38 39 40 41 42 43 44 45 46 47 48 49 50

000
ASUS43 KBIS 190402
RWRND

NORTH DAKOTA REGIONAL WEATHER ROUNDUP
NATIONAL WEATHER SERVICE BISMARCK ND
1100 PM CDT MON SEP 18 2017

NOTE: "FAIR" INDICATES FEW OR NO CLOUDS BELOW 12,000 FEET WITH NO
SIGNIFICANT WEATHER AND/OR OBSTRUCTIONS TO VISIBILITY.


NDZ001>003-009>011-017-190500-
NORTHWEST NORTH DAKOTA

CITY           SKY/WX    TMP DP  RH WIND       PRES   REMARKS
WILLISTON      MOCLDY    63  46  54 SE12      29.65F
MINOT          CLOUDY    54  49  83 E9        29.74F
MINOT AFB      CLOUDY    55  49  81 SE9       29.73S
$$

NDZ018>021-031>035-040>046-190500-
SOUTHWEST NORTH DAKOTA

CITY           SKY/WX    TMP DP  RH WIND       PRES   REMARKS
BISMARCK       CLEAR     55  49  80 E6        29.76F
DICKINSON      CLOUDY    58  45  62 SE13      29.69F
GARRISON         N/A     59  51  75 E10       29.74F
HETTINGER ARPT CLOUDY    58  43  57 E12       29.72F
$$

NDZ004>008-012>016-024-026-027-054-190500-
NORTHEAST NORTH DAKOTA

CITY           SKY/WX    TMP DP  RH WIND       PRES   REMARKS
GRAND FORKS    CLOUDY    59  57  93 SE12      29.83R
GRND FRKS AFB  CLOUDY    59  55  88 SE7       29.84R
DEVILS LAKE    CLEAR     54  52  93 E8        29.81S
$$

NDZ022-023-025-028>030-036>039-047>053-190500-
SOUTHEAST NORTH DAKOTA

CITY           SKY/WX    TMP DP  RH WIND       PRES   REMARKS
FARGO          PTCLDY    61  58  90 SE13      29.82S
JAMESTOWN      CLEAR     54  53  97 CALM      29.80R
$$





USA.gov is the U.S. government's official web portal to all federal, state and local government web resources and services.